EHI
0 0 0 0 0 0 0 0 0 0 0 0 0 0 0 0 1 1 5 31 64 61 44 50 56 42 21 7 1 0 0 0 1 3 3 2 7 17 27 28 20 11 5 1 0 0 0 0 0
0 0 0 0 0 0 0 0 0 0 0 0 0 0 0 0 1 2 10 37 57 45 30 41 53 43 23 8 1 0 0 1 3 5 6 7 11 20 27 25 18 12 8 4 1 0 0 0 0
0 0 0 0 0 0 0 0 0 0 0 0 0 0 0 0 1 5 15 35 44 28 21 39 50 42 24 9 2 1 2 4 9 14 18 19 21 26 26 19 15 14 10 5 1 0 0 0 0
0 0 0 0 0 0 0 0 0 0 0 0 0 0 0 1 4 8 14 25 31 26 23 32 43 37 21 8 2 2 5 13 23 31 35 35 33 29 22 15 13 12 8 3 0 0 0 0 0
0 0 0 0 0 0 0 0 0 0 0 0 0 1 1 2 5 8 10 16 29 36 27 22 28 27 16 7 3 2 7 20 34 44 47 45 38 28 17 11 10 8 4 1 0 0 0 0 0
0 0 0 0 0 0 0 0 0 0 0 0 0 2 2 2 3 4 6 13 33 49 37 18 15 15 10 7 5 3 7 19 33 44 48 43 34 24 14 10 7 5 3 1 0 0 0 0 0
0 0 0 0 0 0 0 0 0 0 0 0 0 2 4 4 3 3 4 12 36 56 44 16 5 5 5 5 5 3 5 13 26 35 37 31 23 16 12 9 6 4 2 1 0 0 0 0 0
0 0 0 0 0 0 0 0 0 0 0 0 0 5 11 11 5 3 3 11 35 58 47 16 1 1 1 2 3 4 7 12 19 22 21 17 11 7 7 10 11 7 2 1 1 0 0 0 0
0 0 0 0 0 0 0 0 0 0 0 0 1 9 16 12 4 3 4 10 33 57 49 20 3 1 0 2 5 7 8 11 11 10 10 7 3 2 6 18 27 18 7 4 2 0 0 0 0
0 0 0 0 0 0 0 0 0 0 0 0 3 11 14 8 2 3 4 9 30 53 51 28 12 6 4 10 15 10 7 8 5 4 5 3 1 5 16 34 40 27 12 5 2 1 0 0 0
0 0 0 0 0 0 0 0 0 0 0 1 5 15 17 7 1 2 2 9 29 46 45 35 26 16 14 26 29 15 9 12 7 6 9 5 3 14 31 39 34 23 10 3 1 2 1 1 0
0 0 0 0 0 0 0 0 0 0 0 1 6 17 20 9 1 0 3 13 33 41 34 35 42 35 31 44 43 23 21 27 21 20 24 17 12 23 35 35 25 15 6 3 3 4 4 2 1
0 0 0 0 0 0 0 0 0 0 0 1 4 12 15 9 3 2 8 23 44 46 35 39 58 60 55 62 60 42 41 47 45 46 47 38 32 38 45 46 38 24 16 13 10 9 8 4 1
0 0 0 0 0 0 0 0 0 0 0 1 1 5 7 7 6 7 17 37 59 65 57 58 73 80 78 79 77 67 63 67 70 72 71 61 57 61 68 70 63 49 38 33 27 20 16 10 5
0 0 0 0 0 0 0 0 0 0 0 0 0 1 3 5 7 11 25 49 72 84 84 81 85 89 91 90 88 83 80 82 86 90 89 82 76 80 86 85 78 67 58 54 48 38 29 21 15
0 0 0 0 0 0 0 0 0 0 0 0 0 1 2 3 6 12 31 59 82 94 97 95 92 94 96 96 93 90 89 91 94 96 95 89 84 85 89 87 79 72 67 62 55 45 36 28 22
0 0 0 0 0 0 0 0 0 0 0 0 0 0 2 4 6 14 35 65 86 96 99 98 97 98 99 99 97 95 94 95 96 93 86 80 76 77 81 79 73 67 63 56 45 34 27 21 16
0 0 0 0 0 0 0 0 0 0 0 0 0 1 2 6 10 19 41 67 86 95 99 100 100 100 100 100 100 99 97 96 92 82 73 67 63 64 66 65 61 56 52 43 30 20 13 9 6
0 0 0 0 0 0 0 0 0 0 0 0 2 4 7 12 20 31 50 70 85 94 99 100 100 100 100 100 100 100 98 91 81 67 58 53 50 48 48 47 44 40 34 26 17 9 5 2 1
0 0 0 0 0 0 0 0 0 0 0 3 7 13 20 28 39 50 63 75 86 95 99 100 100 100 100 100 100 98 93 80 63 50 41 36 33 28 25 26 25 22 17 10 6 3 1 1 0
0 0 0 0 0 0 0 0 0 0 2 8 18 27 39 51 61 69 74 81 89 95 99 100 100 100 99 99 96 91 80 62 46 36 27 20 16 11 9 9 9 8 6 2 1 1 0 0 0
0 0 0 0 0 0 0 0 0 0 5 17 32 46 60 69 75 78 80 84 90 93 95 95 96 95 94 92 89 79 64 47 33 24 16 9 5 3 2 1 2 2 1 0 0 0 0 0 0
0 0 0 0 0 0 0 0 0 2 12 31 50 65 75 78 78 75 75 78 82 84 85 84 84 83 81 79 75 64 50 35 21 12 7 3 1 1 0 0 0 0 0 0 0 0 0 0 0
0 0 0 0 0 0 0 0 5 17 35 56 71 78 77 70 62 57 57 62 66 69 69 69 68 65 62 60 55 46 34 21 11 4 1 0 0 0 0 0 0 0 0 0 0 0 0 0 0
0 0 0 0 0 0 0 3 19 47 69 79 80 73 59 44 35 33 34 39 43 45 46 46 44 40 38 35 30 24 15 8 4 1 0 0 0 0 0 0 0 0 0 0 0 0 0 0 0
0 0 0 0 0 0 1 13 41 71 85 82 70 51 31 19 15 15 16 18 20 22 21 20 18 16 14 12 9 6 4 1 0 0 0 0 0 0 0 0 0 0 0 0 0 0 0 0 0
0 0 0 0 0 0 3 21 53 76 80 70 50 26 12 8 7 6 5 5 6 7 6 6 5 4 3 1 0 0 0 0 0 0 0 0 0 0 0 0 0 0 0 0 0 0 0 0 0
0 0 0 0 0 0 2 16 43 66 70 54 31 13 5 3 3 2 1 1 1 1 1 2 2 1 1 0 0 0 0 0 0 0 0 0 0 0 0 0 0 0 0 0 0 0 0 0 0
0 0 0 0 0 0 1 10 33 58 62 41 17 5 2 1 1 0 0 0 0 0 0 1 1 0 0 0 0 0 0 0 0 0 0 0 0 0 0 0 0 0 0 0 0 0 0 0 0
0 0 0 0 0 0 1 10 35 60 59 34 11 2 1 0 0 0 0 0 0 0 0 0 0 0 0 0 0 0 0 0 0 0 0 0 0 0 0 0 0 0 0 0 0 0 0 0 0
Wind_Speed
12 15 13 10 9 10 14 8 3 8 10 9 10 8 8 13 11 9 8 15 24 21 18 17 16 15 14 14 14 14 14 13 12 11 11 10 11 11 11 11 11 11 11 10 10 9 8 7 6
12 15 11 8 10 13 10 5 5 8 8 3 6 4 8 15 13 12 12 17 23 21 17 16 17 15 15 15 14 14 14 14 13 12 11 11 11 11 11 11 11 10 10 10 9 8 7 6 5
11 15 9 9 14 15 9 5 4 4 5 3 4 5 9 10 11 10 14 18 22 19 17 18 17 16 16 15 15 14 14 14 13 12 11 11 10 10 10 10 10 10 10 9 8 7 6 5 3
8 8 8 10 17 18 12 6 2 3 1 2 4 6 13 8 9 15 17 18 21 20 19 18 17 17 16 15 15 15 14 14 13 12 11 10 10 9 9 9 10 9 9 8 7 6 4 3 2
10 8 12 16 21 21 16 9 3 5 1 1 4 9 11 12 17 19 16 17 20 20 19 17 17 17 16 16 15 14 14 13 12 12 11 10 9 9 9 8 8 8 7 7 6 5 3 2 2
10 10 14 16 20 20 17 11 6 6 5 3 3 11 9 11 17 16 16 15 19 20 19 17 17 17 16 15 15 14 13 12 12 11 10 10 9 8 8 7 7 6 6 6 5 4 2 1 1
13 13 17 20 20 20 16 9 6 7 7 5 3 10 12 14 15 15 15 14 18 21 19 16 15 14 15 14 14 13 12 12 11 11 10 10 9 8 7 7 7 6 5 5 4 3 2 1 2
13 14 20 20 20 20 17 11 7 9 8 3 5 6 12 14 15 15 14 14 17 19 18 15 15 14 13 12 13 13 12 12 11 11 10 10 9 8 8 8 7 6 5 5 4 3 3 4 5
17 16 18 19 19 18 17 12 9 9 6 4 3 12 15 12 15 15 14 13 15 17 17 15 15 14 13 13 13 13 12 11 11 10 10 9 7 8 8 9 11 8 7 6 5 5 6 7 8
15 15 20 20 20 18 15 12 11 9 10 10 10 21 22 18 17 17 16 15 16 17 18 16 16 15 14 12 12 9 9 10 9 8 9 7 6 6 7 12 13 11 9 8 8 8 8 9 6
18 18 18 19 19 16 14 10 9 8 10 9 12 24 26 22 18 17 17 15 16 15 14 17 16 14 14 10 11 8 7 8 9 9 10 6 5 4 6 6 7 7 8 7 7 8 7 7 4
19 18 18 19 16 12 14 11 10 10 9 4 6 17 19 20 19 17 17 17 17 17 15 16 16 13 11 11 10 8 7 8 8 7 10 6 3 2 4 4 5 5 4 5 5 5 6 3 1
19 18 16 16 15 12 13 14 12 12 8 3 3 11 16 18 18 16 16 17 18 17 14 13 14 11 7 7 8 8 6 8 7 7 7 6 4 2 3 2 2 2 3 4 3 3 1 1 1
16 17 18 15 14 14 14 15 15 15 11 8 10 14 19 17 17 15 12 15 16 15 14 11 12 12 8 5 4 5 5 5 6 7 8 7 4 4 3 3 2 0 1 1 1 1 2 2 1
16 15 16 16 16 16 16 18 20 19 15 14 15 15 16 16 17 15 16 14 16 15 14 11 11 12 10 9 6 5 5 7 5 6 8 7 5 5 4 3 2 1 1 1 1 2 2 2 3
14 16 16 17 18 17 19 19 19 19 15 13 13 11 10 10 14 14 14 10 14 16 14 13 14 14 11 8 7 5 5 6 6 6 6 7 7 7 5 4 3 2 2 2 2 2 2 3 3
15 16 17 18 20 18 19 19 18 16 14 12 11 9 7 8 11 10 12 11 10 14 14 13 12 14 13 10 7 5 5 5 6 6 5 5 5 5 4 3 3 3 2 2 3 3 3 3 3
14 18 19 19 18 20 19 18 16 12 13 11 10 10 12 9 7 5 9 13 11 12 14 12 10 11 12 9 6 5 6 5 5 5 5 5 3 4 4 3 3 3 3 3 4 5 4 3 2
19 15 16 17 16 19 17 16 15 10 11 11 10 9 8 7 7 5 5 10 11 13 14 12 11 10 10 8 8 7 6 6 5 5 6 6 4 4 3 3 3 3 3 4 5 4 4 3 1
19 18 16 12 12 13 13 15 15 13 11 7 4 3 2 3 7 7 6 6 8 10 12 12 11 11 10 7 5 5 6 5 5 5 6 6 5 4 3 4 4 4 4 4 4 3 2 2 1
15 15 15 13 9 9 8 13 16 15 11 7 4 3 6 9 10 10 10 8 6 5 8 10 11 11 10 9 7 7 6 5 4 5 5 6 6 6 5 5 4 4 4 3 3 2 3 2 1
12 14 15 16 12 8 12 12 16 17 13 8 6 6 9 12 13 12 11 10 9 5 4 7 9 10 10 10 10 11 7 6 5 5 6 7 7 7 7 6 6 5 4 4 3 3 2 2 2
13 13 15 15 13 13 12 13 14 16 17 10 7 12 13 14 15 15 15 13 11 9 7 7 9 9 9 8 9 9 7 7 7 8 9 8 8 8 8 8 7 6 5 6 6 5 4 3 2
12 14 13 12 12 15 16 15 14 7 8 12 13 15 16 16 16 15 14 14 14 12 10 10 12 11 9 8 8 9 10 11 11 10 9 7 6 7 9 8 7 7 6 6 5 4 5 3 3
12 11 8 10 12 15 15 16 8 6 15 18 17 17 15 15 14 14 13 13 14 14 14 13 14 13 12 11 10 10 11 11 11 10 9 8 6 6 7 7 7 6 5 5 4 4 4 3 3
13 15 12 11 11 13 17 17 6 14 18 19 18 17 15 15 13 13 12 12 12 13 13 14 15 14 14 14 13 12 11 9 8 9 9 8 7 7 7 6 6 5 5 4 3 3 2 2 2
14 15 16 15 17 15 10 5 12 16 17 17 17 16 15 13 13 12 12 12 12 12 13 14 15 15 14 14 14 13 12 11 11 10 10 8 7 7 7 6 5 5 4 3 2 2 2 2 2
16 13 9 11 13 15 12 7 9 18 16 16 15 15 14 13 13 12 11 11 11 12 12 13 14 14 13 12 12 11 11 11 10 10 10 8 7 6 6 6 5 4 4 3 3 2 3 2 2
13 14 12 10 12 13 11 1 6 13 16 15 15 14 14 13 12 11 10 10 11 12 12 12 13 13 13 13 12 12 11 11 11 10 9 8 7 6 6 5 4 4 4 4 3 3 2 3 3
11 12 11 10 11 11 10 3 8 15 17 17 15 13 13 13 12 11 11 10 11 11 11 11 11 12 12 12 12 11 11 11 10 10 9 7 6 5 5 4 4 3 4 4 4 5 5 5 5
Wind_Direction
283 276 274 279 265 251 262 282 3 62 59 52 50 34 40 58 64 97 124 117 114 122 127 124 120 121 124 128 131 133 135 135 133 129 123 116 111 108 105 104 105 105 105 103 99 96 92 89 86
287 286 285 266 267 271 291 322 38 61 77 69 83 69 62 70 80 106 121 119 120 125 133 128 123 123 124 127 130 133 137 138 136 133 129 123 118 113 110 108 106 105 104 102 99 96 93 90 88
274 272 276 270 261 268 282 335 9 55 97 78 75 72 67 70 89 111 124 131 125 130 130 127 128 125 125 127 130 134 136 137 136 134 132 127 122 117 113 111 109 107 106 104 102 99 95 90 82
261 255 247 261 269 271 268 258 289 303 81 107 80 66 84 77 102 121 135 141 131 132 128 133 131 129 128 129 131 134 136 137 137 136 133 129 125 120 117 116 114 113 112 111 108 105 99 89 70
239 258 258 262 267 273 275 268 252 270 270 175 114 93 80 90 103 120 146 143 134 132 130 137 134 132 132 133 134 135 136 137 136 135 133 130 127 124 121 120 119 119 119 117 115 112 103 84 35
239 242 251 256 261 263 263 260 254 256 244 231 145 107 109 115 117 137 146 144 135 130 132 138 139 138 138 138 137 136 137 137 136 136 135 133 130 128 127 126 125 125 124 123 122 120 110 78 338
238 245 250 256 263 269 270 264 250 247 240 222 194 128 131 133 131 142 143 146 135 132 133 145 146 144 142 140 139 138 137 136 136 137 138 140 141 142 142 138 136 133 132 133 136 141 149 237 278
236 247 254 258 264 271 276 267 248 249 253 214 217 132 127 131 140 142 148 147 138 134 138 150 153 153 154 151 148 145 142 141 142 146 150 153 156 160 161 160 152 145 145 149 155 172 208 240 255
231 241 248 252 257 263 265 255 237 227 240 237 185 105 119 148 152 150 151 151 141 138 143 154 158 160 165 162 155 152 152 151 153 158 164 169 183 181 182 183 153 157 162 168 178 200 222 237 242
225 233 241 251 261 268 264 247 232 214 217 211 144 122 140 170 165 161 158 161 152 149 152 160 163 165 173 167 152 165 169 165 181 174 173 194 209 193 179 153 158 166 173 183 198 214 227 236 234
226 234 247 252 260 273 278 249 231 232 228 213 162 145 155 167 166 169 164 166 158 158 163 163 166 169 175 158 156 173 178 165 193 184 174 197 205 178 142 152 161 173 185 198 200 215 229 227 222
231 234 244 260 272 266 273 271 247 235 240 236 186 152 153 165 170 176 168 168 160 164 176 166 165 168 177 161 162 172 174 163 181 173 173 181 195 175 152 168 170 184 195 204 194 221 221 245 281
230 240 247 254 271 270 259 263 271 264 250 226 217 164 168 179 174 180 173 167 164 166 177 169 164 160 169 148 159 168 164 163 163 158 167 160 171 169 135 141 148 198 180 178 213 241 166 84 305
239 231 245 249 248 254 255 257 257 257 243 198 203 193 184 182 183 177 174 169 166 164 170 171 157 151 155 144 147 145 154 138 146 151 159 164 152 136 138 133 124 31 33 98 164 283 103 106 14
254 250 237 237 238 238 243 246 247 245 232 200 205 202 188 183 182 178 177 177 165 161 163 161 157 154 158 161 166 157 158 145 140 137 141 144 147 142 138 131 146 175 147 102 80 34 53 78 65
240 246 246 235 226 230 234 242 239 231 226 209 205 204 192 192 191 183 176 168 162 160 159 163 170 161 162 167 170 171 162 142 135 130 133 145 150 149 146 148 149 149 113 91 95 56 70 60 58
233 231 238 237 216 216 223 240 248 218 207 209 205 192 188 207 211 181 166 161 167 157 157 163 166 161 166 168 168 163 141 136 129 126 131 136 137 140 135 130 133 136 121 106 109 75 70 69 53
226 224 232 236 208 207 217 230 248 213 200 200 207 195 182 198 206 194 163 161 164 160 154 159 160 157 159 163 157 152 139 126 122 123 119 111 110 117 120 127 136 129 120 111 103 101 80 73 58
260 254 239 232 207 199 218 232 240 222 205 204 202 204 187 173 173 151 147 144 153 155 151 159 166 157 157 163 165 161 146 134 124 111 108 109 111 115 122 124 120 121 117 120 119 112 105 91 62
255 271 270 244 206 192 214 235 244 241 221 210 211 179 140 98 75 69 71 95 143 147 154 160 163 161 163 155 148 137 129 121 113 102 93 91 90 86 93 97 107 109 112 117 124 123 120 102 99
246 259 268 268 220 186 221 246 253 249 231 198 178 95 53 59 53 50 41 46 72 124 155 166 165 158 154 140 131 124 112 107 111 110 92 76 78 78 80 90 96 105 115 125 128 133 140 139 121
245 252 266 278 266 222 206 235 237 239 230 203 173 110 73 58 51 44 40 30 41 47 120 137 142 139 139 139 145 147 147 142 127 112 96 81 71 74 76 78 80 82 86 92 86 66 64 117 123
244 249 247 258 269 271 245 242 244 227 218 195 134 91 74 64 58 47 39 34 34 42 64 99 111 117 125 131 137 139 128 113 108 101 96 85 73 71 75 77 81 83 81 80 76 67 57 60 84
242 251 246 242 250 248 248 254 252 254 198 132 105 86 75 69 63 54 45 41 39 43 58 78 88 88 94 103 114 119 117 115 113 106 102 93 87 81 80 82 83 83 84 83 83 78 72 64 63
229 238 232 222 228 241 234 238 234 96 92 102 102 89 79 72 65 56 49 47 46 48 54 68 76 74 74 78 85 94 102 105 106 107 103 102 96 88 83 85 85 85 85 86 82 77 71 60 53
216 229 238 240 235 239 224 224 158 113 103 102 100 96 86 77 70 63 56 55 54 56 59 69 75 75 73 76 77 79 84 89 92 94 99 97 95 94 96 95 93 92 92 90 83 78 75 66 36
232 225 244 262 278 282 265 131 112 117 116 113 108 101 92 84 77 71 64 62 63 64 66 73 78 77 76 79 80 79 80 86 92 93 93 96 103 110 106 102 99 97 90 85 86 87 61 47 3
246 238 238 249 265 275 274 192 167 155 138 124 114 106 99 92 84 77 73 71 71 72 73 75 79 81 82 83 86 88 88 90 92 93 93 96 98 100 104 100 95 90 81 65 37 57 53 12 4
231 241 250 256 257 264 273 354 83 145 136 125 115 111 106 100 93 88 82 80 80 80 80 81 83 85 85 86 89 91 92 93 93 93 93 92 93 92 92 95 93 90 78 56 34 18 25 9 5
250 246 248 254 262 272 280 73 86 116 120 118 114 109 104 102 99 95 92 89 86 86 86 86 87 88 89 90 91 90 90 90 91 91 91 90 89 88 88 85 78 71 71 50 25 10 18 8 5